Weather in Kambarka

Russia / Udmurt Republic     56°15′57″N   54°11′36″E
temp.,
°C
wind,
m/s
gust,
m/s
humid.,
%
clouds,
%
prec.,
mm/h
press.,
hPa
HPBL,
m
14 may, fri
fri1401:00+17sse22565 0.0 102512
04:00+16s22625 0.0 102521
07:00+20s25525 0.0 1025189
10:00+25s353623 0.0 1025729
13:00+28ssw462932 0.0 10231634
16:00+28ssw46305 0.0 10231689
19:00+24s37485 0.0 1022207
22:00+19s396086 0.0 1021157
15 may, sat
sat1501:00+17s311607 0.0 1021193
04:00+16ssw276290 0.0 1021117
07:00+20ssw37545 0.0 1021257
10:00+25sw453957 0.0 1021682
13:00+28sw563084 0.0 10211178
16:00+30sw582854 0.0 10201568
19:00+25ssw374868 0.0 1019181
22:00+20ssw3115799 0.0 1019183
16 may, sun
sun1601:00+18ssw235937 0.0 102054
04:00+16s23595 0.0 102030
07:00+20ssw25495 0.0 1020173
10:00+27ssw47345 0.0 1020662
13:00+30ssw58255 0.0 10192428
16:00+30sw57245 0.0 10183051
19:00+26ssw37408 0.0 1017170
22:00+20s2355100 0.0 101742
17 may, mon
mon1701:00+19ssw3115737 0.0 1017198
04:00+17sw2657100 0.0 1018104
07:00+21wsw2652100 0.0 1018222
10:00+26wsw363974 0.0 1018703
13:00+29wsw483285 0.0 10181610
16:00+29w5113047 0.0 10172665
19:00+26w25455 0.0 1017148
22:00+20w11625 0.0 101711
18 may, tue
tue1801:00+17w1175100 0.4 101811
04:00+16nne1182100 0.4 101811
07:00+20wnw126891 0.1 1018129
10:00+27wnw12445 0.1 1018940
13:00+29w3634100 0.0 10172518
16:00+30wnw362753 0.0 10173322
19:00+26nw223893 0.0 101624
22:00+20ese236152 0.0 101837